DW6794 Weather Reports


Display with metric or nautical units.
time (UTC)temp
F
wind
direction
speed
MPH
gust
MPH
rain 1hr
in
rain 24hr
in
rain mn
in
humidity
%
barometer
mb
20141122024340 22 253 0.0 0.0 0.00 0.00 0.00 61 1029.7
20141122023340 23 253 0.0 0.0 0.00 0.00 0.00 59 1029.6
20141122022340 23 253 0.0 0.0 0.00 0.00 0.00 59 1029.6
20141122021340 23 253 0.0 0.0 0.00 0.00 0.00 59 1029.6
20141122020340 23 253 0.0 0.0 0.00 0.00 0.00 58 1029.5
20141122015340 24 253 0.0 0.0 0.00 0.00 0.00 59 1029.7
20141122014340 24 253 0.0 0.0 0.00 0.00 0.00 57 1029.8
20141122013340 24 253 0.0 0.0 0.00 0.00 0.00 56 1029.9
20141122012341 25 253 0.0 0.0 0.00 0.00 0.00 56 1029.9
20141122011340 25 253 0.0 0.0 0.00 0.00 0.00 57 1029.8
20141122010341 25 253 0.0 0.0 0.00 0.00 0.00 56 1029.7
20141122005341 25 253 0.0 0.0 0.00 0.00 0.00 55 1029.8
20141122004340 26 253 0.0 0.0 0.00 0.00 0.00 55 1029.8
20141122003340 26 253 0.0 0.0 0.00 0.00 0.00 54 1029.8
20141122002341 26 253 0.0 0.0 0.00 0.00 0.00 54 1029.9
20141122001340 26 253 0.0 0.0 0.00 0.00 0.00 52 1029.8
20141122000340 27 253 0.0 0.0 0.00 0.00 0.00 51 1029.8
20141121235340 28 253 0.0 0.0 0.00 0.00 0.00 50 1029.8
20141121234341 29 253 0.0 0.0 0.00 0.00 0.00 47 1029.8
20141121233340 30 253 0.0 0.0 0.00 0.00 0.00 46 1029.7
20141121232341 31 253 0.0 0.0 0.00 0.00 0.00 44 1029.7
20141121231341 32 253 0.0 0.0 0.00 0.00 0.00 43 1029.5
20141121230340 34 253 0.0 0.0 0.00 0.00 0.00 42 1029.3
20141121225341 36 253 0.0 0.0 0.00 0.00 0.00 41 1029.2
20141121224340 38 253 0.0 0.0 0.00 0.00 0.00 40 1029.2
20141121223341 39 253 0.0 0.0 0.00 0.00 0.00 39 1029.2
20141121222341 41 253 0.0 0.0 0.00 0.00 0.00 38 1029.2
20141121221340 42 253 0.0 0.0 0.00 0.00 0.00 37 1029.1
20141121220341 44 253 0.0 0.0 0.00 0.00 0.00 36 1029.2
20141121215341 46 253 0.0 0.0 0.00 0.00 0.00 35 1029.2
20141121214340 46 253 0.0 0.0 0.00 0.00 0.00 35 1029.2
20141121213340 47 253 0.0 0.0 0.00 0.00 0.00 34 1029.2
20141121212341 48 253 0.0 0.0 0.00 0.00 0.00 34 1029.2
20141121211341 48 253 0.0 0.0 0.00 0.00 0.00 33 1029.2
20141121210341 48 253 0.0 0.0 0.00 0.00 0.00 34 1029.2
20141121205341 48 253 0.0 3.0 0.00 0.00 0.00 34 1029.2
20141121204341 48 253 0.0 5.0 0.00 0.00 0.00 35 1029.1
20141121203342 48 252 0.0 5.0 0.00 0.00 0.00 35 1029.2
20141121202341 48 252 2.0 5.0 0.00 0.00 0.00 36 1029.2
20141121201341 48 263 1.0 5.0 0.00 0.00 0.00 36 1029.1
20141121200341 47 263 0.0 3.0 0.00 0.00 0.00 37 1029.0
20141121195342 47 263 0.0 5.0 0.00 0.00 0.00 38 1029.0
20141121194341 47 263 0.0 5.0 0.00 0.00 0.00 38 1028.9
20141121193341 47 261 0.0 0.0 0.00 0.00 0.00 39 1029.0
20141121192341 46 250 3.0 6.0 0.00 0.00 0.00 37 1029.0
20141121191342 46 255 3.0 6.0 0.00 0.00 0.00 39 1029.1
20141121190341 46 270 0.0 5.0 0.00 0.00 0.00 39 1029.1
20141121185341 45 260 2.0 6.0 0.00 0.00 0.00 40 1029.4
20141121184341 45 256 5.0 8.0 0.00 0.00 0.00 39 1029.5
20141121183342 45 236 1.0 7.0 0.00 0.00 0.00 42 1029.5
20141121182341 45 188 3.0 7.0 0.00 0.00 0.00 43 1029.6
20141121181341 45 355 0.0 1.0 0.00 0.00 0.00 45 1029.7
20141121180341 44 334 0.0 5.0 0.00 0.00 0.00 45 1029.7
20141121175342 43 246 5.0 7.0 0.00 0.00 0.00 44 1029.7
20141121174341 43 251 4.0 6.0 0.00 0.00 0.00 47 1029.9
20141121173342 43 264 4.0 7.0 0.00 0.00 0.00 48 1029.8
20141121172341 42 280 5.0 7.0 0.00 0.00 0.00 48 1030.1
20141121171341 42 315 3.0 6.0 0.00 0.00 0.00 51 1030.1
20141121170341 42 355 0.0 0.0 0.00 0.00 0.00 53 1030.1
20141121165341 42 21 0.0 0.0 0.00 0.00 0.00 53 1030.1
20141121164342 41 21 0.0 0.0 0.00 0.00 0.00 53 1030.2
20141121163342 41 317 0.0 0.0 0.00 0.00 0.00 56 1030.3
20141121162342 40 257 0.0 0.0 0.00 0.00 0.00 58 1030.5
20141121161341 40 257 0.0 0.0 0.00 0.00 0.00 58 1030.5
20141121160341 40 59 0.0 0.0 0.00 0.00 0.00 61 1030.5
20141121155342 39 18 0.0 0.0 0.00 0.00 0.00 63 1030.4
20141121154342 38 17 0.0 0.0 0.00 0.00 0.00 64 1030.3
20141121153342 37 286 0.0 0.0 0.00 0.00 0.00 64 1030.2
20141121152341 37 284 0.0 0.0 0.00 0.00 0.00 66 1030.2
20141121151342 36 281 0.0 0.0 0.00 0.00 0.00 67 1030.2
20141121150341 35 281 0.0 0.0 0.00 0.00 0.00 69 1030.1
20141121145342 34 247 0.0 0.0 0.00 0.00 0.00 70 1030.1
20141121144342 33 248 0.0 0.0 0.00 0.00 0.00 71 1030.1
20141121143342 32 248 0.0 0.0 0.00 0.00 0.00 72 1030.1
20141121142342 31 248 0.0 0.0 0.00 0.00 0.00 73 1029.9
20141121141342 30 248 0.0 0.0 0.00 0.00 0.00 72 1029.9
20141121140342 30 249 0.0 0.0 0.00 0.00 0.00 73 1029.8
20141121135342 29 249 0.0 0.0 0.00 0.00 0.00 73 1029.7
20141121134342 27 249 0.0 0.0 0.00 0.00 0.00 74 1029.7
20141121133342 25 249 0.0 0.0 0.00 0.00 0.00 73 1029.3
20141121132342 23 249 0.0 0.0 0.00 0.00 0.00 73 1029.1
20141121131343 21 249 0.0 0.0 0.00 0.00 0.00 72 1029.1
20141121130343 20 249 0.0 0.0 0.00 0.00 0.00 70 1029.0
20141121125343 19 249 0.0 0.0 0.00 0.00 0.00 70 1028.7
20141121124342 19 249 0.0 0.0 0.00 0.00 0.00 70 1028.6
20141121123342 19 249 0.0 0.0 0.00 0.00 0.00 70 1028.4
20141121122342 19 249 0.0 0.0 0.00 0.00 0.00 70 1028.3
20141121121342 20 249 0.0 0.0 0.00 0.00 0.00 70 1028.0
20141121120342 20 249 0.0 0.0 0.00 0.00 0.00 69 1028.0
20141121115343 20 249 0.0 0.0 0.00 0.00 0.00 69 1027.7
20141121114343 20 249 0.0 0.0 0.00 0.00 0.00 70 1027.5
20141121113343 20 249 0.0 0.0 0.00 0.00 0.00 70 1027.5
20141121112343 20 249 0.0 0.0 0.00 0.00 0.00 70 1027.4
20141121111342 21 249 0.0 0.0 0.00 0.00 0.00 69 1027.1
20141121110342 21 249 0.0 0.0 0.00 0.00 0.00 69 1026.9
20141121105342 21 249 0.0 0.0 0.00 0.00 0.00 69 1026.9
20141121104343 21 249 0.0 0.0 0.00 0.00 0.00 69 1026.7
20141121103343 21 249 0.0 0.0 0.00 0.00 0.00 69 1026.4
20141121102343 22 249 0.0 0.0 0.00 0.00 0.00 69 1026.3
20141121101342 22 249 0.0 0.0 0.00 0.00 0.00 69 1026.2
20141121100343 22 249 0.0 0.0 0.00 0.00 0.00 69 1026.1
20141121095343 22 249 0.0 0.0 0.00 0.00 0.00 68 1025.9
20141121094343 22 249 0.0 0.0 0.00 0.00 0.00 68 1025.8
20141121093343 22 249 0.0 0.0 0.00 0.00 0.00 68 1025.7
20141121092343 23 249 0.0 0.0 0.00 0.00 0.00 68 1025.6
20141121091343 23 249 0.0 0.0 0.00 0.00 0.00 68 1025.6
20141121090343 23 249 0.0 0.0 0.00 0.00 0.00 68 1025.5
20141121085343 23 249 0.0 0.0 0.00 0.00 0.00 67 1025.4
20141121084344 23 249 0.0 0.0 0.00 0.00 0.00 67 1025.2
20141121083343 23 249 0.0 0.0 0.00 0.00 0.00 68 1025.3
20141121082343 23 249 0.0 0.0 0.00 0.00 0.00 67 1025.3
20141121081344 24 249 0.0 0.0 0.00 0.00 0.00 67 1025.1
20141121080343 24 249 0.0 0.0 0.00 0.00 0.00 67 1025.1
20141121075343 24 249 0.0 0.0 0.00 0.00 0.00 66 1025.0
20141121074343 24 249 0.0 0.0 0.00 0.00 0.00 66 1024.9
20141121073343 24 249 0.0 0.0 0.00 0.00 0.00 66 1024.6
20141121072344 24 249 0.0 0.0 0.00 0.00 0.00 65 1024.5
20141121071344 25 249 0.0 0.0 0.00 0.00 0.00 65 1024.4
20141121070343 25 249 0.0 0.0 0.00 0.00 0.00 65 1024.2
20141121065343 25 249 0.0 0.0 0.00 0.00 0.00 65 1024.0
20141121064343 26 249 0.0 0.0 0.00 0.00 0.00 65 1024.0
20141121063343 26 249 0.0 0.0 0.00 0.00 0.00 64 1023.9
20141121062343 26 249 0.0 0.0 0.00 0.00 0.00 63 1023.9
20141121061344 27 249 0.0 0.0 0.00 0.00 0.00 63 1023.7
20141121060343 27 249 0.0 0.0 0.00 0.00 0.00 63 1023.4
20141121055343 28 249 0.0 0.0 0.00 0.00 0.00 63 1023.4
20141121054343 28 249 0.0 0.0 0.00 0.00 0.00 62 1023.4
20141121053344 28 249 0.0 0.0 0.00 0.00 0.00 61 1023.4
20141121052344 29 249 0.0 0.0 0.00 0.00 0.00 60 1023.3
20141121051343 29 249 0.0 0.0 0.00 0.00 0.00 59 1023.1
20141121050344 30 249 0.0 0.0 0.00 0.00 0.00 58 1022.9
20141121045344 31 249 0.0 0.0 0.00 0.00 0.00 58 1022.9
20141121044343 32 249 0.0 0.0 0.00 0.00 0.00 58 1022.8
20141121043344 33 249 0.0 0.0 0.00 0.00 0.00 58 1022.6
20141121042344 34 249 0.0 0.0 0.00 0.00 0.00 58 1022.4
20141121041344 35 249 0.0 0.0 0.00 0.00 0.00 57 1022.3
20141121040344 36 249 0.0 0.0 0.00 0.00 0.00 56 1022.3
20141121035344 37 249 0.0 0.0 0.00 0.00 0.00 56 1022.3
20141121034344 39 249 0.0 2.0 0.00 0.00 0.00 55 1022.1
20141121033344 39 249 1.0 7.0 0.00 0.00 0.00 55 1021.8
20141121032344 40 222 4.0 8.0 0.00 0.00 0.00 55 1021.7
20141121031344 40 213 5.0 10.0 0.00 0.00 0.00 55 1021.7
20141121030345 40 234 5.0 8.0 0.00 0.00 0.00 56 1021.5
20141121025344 40 231 6.0 9.0 0.00 0.00 0.00 56 1021.2